This is the latest recevied weather packets stored in our database for station/object KVDF. If no packets are shown the sender has not sent any weather packets the latest 10 day(s).
| Time | Temp. | Humidity | Pressure | Rain* | Wind** | Luminosity | Snow |
|---|---|---|---|---|---|---|---|
| 1777844026 | 26.67° C | 47% | 1015.2 hPa | - | - | - | - |
| 1777843427 | 26.67° C | 47% | 1015.2 hPa | - | - | - | - |
| 1777842826 | 25.56° C | 47% | 1015.2 hPa | - | - | - | - |
| 1777842227 | 25.56° C | 47% | 1015.2 hPa | - | - | - | - |
| 1777841625 | 26.67° C | 47% | 1015.6 hPa | - | - | - | - |
| 1777841024 | 26.67° C | 47% | 1015.6 hPa | - | - | - | - |
| 1777840422 | 25.56° C | 50% | 1015.6 hPa | - | - | - | - |
| 1777839827 | 25.56° C | 50% | 1015.6 hPa | - | - | - | - |
| 1777839228 | 26.67° C | 44% | 1015.9 hPa | - | - | - | - |
| 1777838623 | 26.67° C | 44% | 1015.9 hPa | - | - | - | - |
| 1777838024 | 25° C | 50% | 1016.3 hPa | - | - | - | - |
| 1777837427 | 25° C | 50% | 1016.3 hPa | - | - | - | - |
| 1777836825 | 25.56° C | 54% | 1016.9 hPa | - | - | - | - |
| 1777836225 | 25.56° C | 54% | 1016.9 hPa | - | - | - | - |
| 1777835626 | 25.56° C | 54% | 1016.9 hPa | - | - | - | - |
| 1777835024 | 25.56° C | 54% | 1016.9 hPa | - | - | - | - |
| 1777834427 | 25° C | 53% | 1017.3 hPa | - | - | - | - |
| 1777833824 | 25° C | 53% | 1017.3 hPa | - | - | - | - |
| 1777833229 | 25.56° C | 54% | 1017.3 hPa | - | - | - | - |
| 1777832625 | 25.56° C | 54% | 1017.3 hPa | - | - | - | - |
| 1777832026 | 25° C | 53% | 1017.6 hPa | - | - | - | - |
| 1777831424 | 25° C | 53% | 1017.6 hPa | - | - | - | - |
| 1777830826 | 25° C | 53% | 1017.9 hPa | - | - | - | - |
| 1777830223 | 25° C | 53% | 1017.9 hPa | - | - | - | - |
| 1777829624 | 25° C | 57% | 1017.9 hPa | - | - | - | - |
* Rain since midnight (hover to see other rain measurements)
** Current wind speed in m/s (hover to see current wind gust speed)